This is the latest recevied weather packets stored in our database for station/object K5FEP. If no packets are shown the sender has not sent any weather packets the latest 10 day(s).
| Time | Temp. | Humidity | Pressure | Rain* | Wind** | Luminosity | Snow |
|---|---|---|---|---|---|---|---|
| 1777693575 | 10.56° C | 82% | 1012.1 hPa | 0 mm | - | 0 W/m² | - |
| 1777693273 | 11.11° C | 81% | 1012.2 hPa | 0 mm | - | 0 W/m² | - |
| 1777692971 | 11.11° C | 80% | 1012.3 hPa | 0 mm | - | 0 W/m² | - |
| 1777692669 | 11.11° C | 80% | 1012.3 hPa | 0 mm | - | 0 W/m² | - |
| 1777692364 | 11.11° C | 80% | 1012.4 hPa | 0 mm | - | 0 W/m² | - |
| 1777692060 | 11.11° C | 80% | 1012.3 hPa | 0 mm | - | 0 W/m² | - |
| 1777691759 | 11.11° C | 79% | 1012.2 hPa | 0 mm | - | 0 W/m² | - |
| 1777691456 | 11.67° C | 78% | 1012.1 hPa | 0 mm | - | 0 W/m² | - |
| 1777691155 | 11.67° C | 78% | 1012.6 hPa | 0 mm | - | 0 W/m² | - |
| 1777690852 | 11.67° C | 77% | 1012.3 hPa | 0 mm | - | 0 W/m² | - |
| 1777690549 | 11.67° C | 76% | 1012.4 hPa | 0 mm | - | 0 W/m² | - |
| 1777690248 | 12.22° C | 75% | 1012.2 hPa | 0 mm | - | 0 W/m² | - |
| 1777689945 | 12.22° C | 75% | 1012.2 hPa | 0 mm | - | 0 W/m² | - |
| 1777689643 | 11.67° C | 75% | 1012.1 hPa | 0 mm | - | 0 W/m² | - |
| 1777689340 | 12.22° C | 75% | 1012.2 hPa | 0 mm | - | 0 W/m² | - |
| 1777689037 | 12.22° C | 74% | 1012.1 hPa | 0 mm | - | 0 W/m² | - |
| 1777688734 | 12.22° C | 74% | 1011.8 hPa | 0 mm | - | 0 W/m² | - |
| 1777688432 | 12.22° C | 74% | 1011.9 hPa | 0 mm | - | 0 W/m² | - |
| 1777688129 | 12.22° C | 74% | 1011.9 hPa | 0 mm | - | 0 W/m² | - |
| 1777687826 | 12.22° C | 73% | 1011.9 hPa | 0 mm | - | 0 W/m² | - |
| 1777687523 | 12.78° C | 72% | 1011.7 hPa | 0 mm | - | 0 W/m² | - |
| 1777687220 | 12.78° C | 72% | 1011.7 hPa | 0 mm | - | 0 W/m² | - |
| 1777686918 | 12.78° C | 71% | 1011.8 hPa | 0 mm | - | 0 W/m² | - |
| 1777686614 | 12.78° C | 71% | 1012 hPa | 0 mm | - | 0 W/m² | - |
| 1777686311 | 12.78° C | 71% | 1011.7 hPa | 0 mm | - | 0 W/m² | - |
* Rain latest hour (hover to see other rain measurements)
** Current wind speed in m/s (hover to see current wind gust speed)